Location: Newark
(34.9500°N, 139.9667°E)
Time: 14:10:49
(UTC+00:00)

Vanguard 2 Rocket - Pass Details

Date: 12 December 2019
Orbit: 554 x 3326 km, 32.9° (Epoch: 28 January)

Event Time Altitude Azimuth Distance (km) Brightness Sun altitude
Rises 14:28:42 0° 273° (W) 3,829 - -78.1°
Reaches altitude 10° 14:33:18 10° 247° (WSW) 2,389 - -78.1°
Maximum altitude 14:35:40 13° 221° (SW) 1,981 - -78.1°
Drops below altitude 10° 14:37:45 10° 193° (SSW) 2,021 - -78.1°
Sets 14:40:58 0° 162° (SSE) 2,755 - -78.0°
